IBE1284 TNCM-SAEZ

Flight info

Callsign IBE1284
Flight time N/A
Altitude 35000
Route MODOR2 ZPATA UL329 KORTO UG449 LEPOD UA312 TIM/N0487F360 UL322 PAKEM/N0479F380 UL322 VIR/N0481F370 UL404 UKDOR/N0475F390 UL404 ISOPO UT672 MULTA UW24 SNT SNT7V
Aircraft A346/H-SDE2E3FGHIJ3J4J5M1RWXY/LB1D1

Departure

Time 2026-05-06 09:05
Airport Princess Juliana International Airport (TNCM)

Arrival

Time N/A
Airport Ezeiza International Airport - Ministro Pistarini (SAEZ)
Time Latitude Longitude Altitude Speed Heading
2026-05-06 08:49 18.04314 -63.11363 37 ft 0 kts 353°
2026-05-06 08:56 18.04308 -63.11363 37 ft 4 kts 353°
2026-05-06 08:56 18.04282 -63.11358 37 ft 3 kts 352°
2026-05-06 08:56 18.04261 -63.11354 37 ft 4 kts 334°
2026-05-06 08:56 18.04246 -63.11342 37 ft 4 kts 297°
2026-05-06 08:57 18.04243 -63.11321 37 ft 4 kts 265°
2026-05-06 08:57 18.04246 -63.11293 37 ft 4 kts 262°
2026-05-06 08:57 18.04247 -63.11287 37 ft 0 kts 263°
2026-05-06 09:00 18.04246 -63.11293 37 ft 3 kts 258°
2026-05-06 09:00 18.04234 -63.11309 37 ft 3 kts 211°
2026-05-06 09:00 18.04207 -63.11312 37 ft 5 kts 169°
2026-05-06 09:00 18.04163 -63.11301 36 ft 8 kts 168°
2026-05-06 09:01 18.04101 -63.11290 35 ft 9 kts 172°
2026-05-06 09:01 18.04045 -63.11302 36 ft 9 kts 229°
2026-05-06 09:01 18.04022 -63.11373 36 ft 12 kts 262°
2026-05-06 09:01 18.04010 -63.11463 36 ft 13 kts 260°
2026-05-06 09:02 18.03995 -63.11557 36 ft 14 kts 262°
2026-05-06 09:02 18.03980 -63.11660 36 ft 14 kts 263°
2026-05-06 09:02 18.03969 -63.11756 36 ft 11 kts 262°
2026-05-06 09:02 18.03964 -63.11814 36 ft 4 kts 278°
2026-05-06 09:03 18.03969 -63.11854 36 ft 7 kts 278°
2026-05-06 09:03 18.03980 -63.11904 36 ft 5 kts 287°
2026-05-06 09:03 18.03981 -63.11938 36 ft 4 kts 240°
2026-05-06 09:03 18.03961 -63.11946 36 ft 3 kts 160°
2026-05-06 09:04 18.03950 -63.11913 36 ft 12 kts 90°
2026-05-06 09:04 18.03969 -63.11747 36 ft 45 kts 82°
2026-05-06 09:04 18.04056 -63.11142 36 ft 120 kts 81°
2026-05-06 09:04 18.04214 -63.10043 46 ft 178 kts 81°
2026-05-06 09:05 18.04364 -63.08706 702 ft 184 kts 91°
2026-05-06 09:05 18.04000 -63.07439 1604 ft 187 kts 127°
2026-05-06 09:05 18.02893 -63.06720 2265 ft 197 kts 168°
2026-05-06 09:05 18.01477 -63.06859 2669 ft 213 kts 186°
2026-05-06 09:06 17.99963 -63.07080 3109 ft 227 kts 181°
2026-05-06 09:06 17.98327 -63.07220 3464 ft 245 kts 180°
2026-05-06 09:06 17.96583 -63.07355 3869 ft 262 kts 181°
2026-05-06 09:06 17.94729 -63.07512 4504 ft 270 kts 182°
2026-05-06 09:07 17.92850 -63.07680 5281 ft 272 kts 182°
2026-05-06 09:07 17.90952 -63.07852 6041 ft 274 kts 182°
2026-05-06 09:07 17.89042 -63.08025 6763 ft 277 kts 182°
2026-05-06 09:07 17.87137 -63.08191 7438 ft 280 kts 179°
2026-05-06 09:08 17.85210 -63.07938 8065 ft 280 kts 159°
2026-05-06 09:08 17.83475 -63.07007 8663 ft 281 kts 140°
2026-05-06 09:08 17.82067 -63.05571 9239 ft 283 kts 131°
2026-05-06 09:08 17.80620 -63.04145 9779 ft 288 kts 143°
2026-05-06 09:09 17.78931 -63.02976 10332 ft 292 kts 146°
2026-05-06 09:09 17.77210 -63.01855 10834 ft 298 kts 148°
2026-05-06 09:09 17.75385 -63.00693 11127 ft 312 kts 148°
2026-05-06 09:09 17.73474 -62.99493 11373 ft 326 kts 148°
2026-05-06 09:10 17.71481 -62.98251 11634 ft 340 kts 149°
2026-05-06 09:10 17.69402 -62.96961 11877 ft 353 kts 149°
2026-05-06 09:10 17.67266 -62.95638 12128 ft 367 kts 149°
2026-05-06 09:10 17.65030 -62.94254 12373 ft 380 kts 149°
2026-05-06 09:11 17.62705 -62.92816 12627 ft 392 kts 149°
2026-05-06 09:11 17.60329 -62.91347 13051 ft 399 kts 149°
2026-05-06 09:11 17.57923 -62.89858 13603 ft 402 kts 149°
2026-05-06 09:11 17.55500 -62.88359 14139 ft 406 kts 149°
2026-05-06 09:12 17.53083 -62.86863 14656 ft 410 kts 149°
2026-05-06 09:12 17.50608 -62.85332 15157 ft 415 kts 149°
2026-05-06 09:12 17.48063 -62.83858 15655 ft 419 kts 153°
2026-05-06 09:12 17.45403 -62.82528 16154 ft 423 kts 156°
2026-05-06 09:13 17.42700 -62.81366 16644 ft 427 kts 159°
2026-05-06 09:13 17.39918 -62.80217 17146 ft 431 kts 159°
2026-05-06 09:13 17.37104 -62.79060 17629 ft 435 kts 159°
2026-05-06 09:13 17.34266 -62.77895 18109 ft 439 kts 159°
2026-05-06 09:14 17.31402 -62.76717 18588 ft 443 kts 159°
2026-05-06 09:14 17.28520 -62.75531 19092 ft 446 kts 159°
2026-05-06 09:14 17.25652 -62.74351 19583 ft 448 kts 159°
2026-05-06 09:14 17.22739 -62.73152 20068 ft 451 kts 159°
2026-05-06 09:15 17.19809 -62.71946 20530 ft 454 kts 159°
2026-05-06 09:15 17.16864 -62.70735 20976 ft 456 kts 159°
2026-05-06 09:15 17.13897 -62.69514 21409 ft 458 kts 159°
2026-05-06 09:15 17.10916 -62.68289 21832 ft 461 kts 159°
2026-05-06 09:16 17.07921 -62.67057 22230 ft 463 kts 159°
2026-05-06 09:16 17.04944 -62.65834 22608 ft 465 kts 159°
2026-05-06 09:16 17.01914 -62.64589 22983 ft 468 kts 159°
2026-05-06 09:16 16.98885 -62.63345 23341 ft 470 kts 159°
2026-05-06 09:17 16.95825 -62.62089 23687 ft 472 kts 159°
2026-05-06 09:17 16.92755 -62.60830 24030 ft 473 kts 159°
2026-05-06 09:17 16.89683 -62.59570 24370 ft 475 kts 159°
2026-05-06 09:17 16.86600 -62.58305 24689 ft 477 kts 159°
2026-05-06 09:18 16.83540 -62.57050 24992 ft 478 kts 159°
2026-05-06 09:18 16.80422 -62.55772 25303 ft 480 kts 159°
2026-05-06 09:18 16.77297 -62.54491 25593 ft 482 kts 159°
2026-05-06 09:18 16.74165 -62.53209 25886 ft 484 kts 159°
2026-05-06 09:19 16.71020 -62.51922 26195 ft 485 kts 159°
2026-05-06 09:19 16.67910 -62.50650 26473 ft 487 kts 159°
2026-05-06 09:19 16.64744 -62.49354 26746 ft 489 kts 160°
2026-05-06 09:19 16.61561 -62.48053 27009 ft 491 kts 160°
2026-05-06 09:20 16.58363 -62.46746 27276 ft 492 kts 160°
2026-05-06 09:20 16.55200 -62.45453 27528 ft 494 kts 160°
2026-05-06 09:20 16.51996 -62.44146 27784 ft 496 kts 160°
2026-05-06 09:20 16.48768 -62.42828 28038 ft 497 kts 160°
2026-05-06 09:21 16.45536 -62.41508 28299 ft 498 kts 160°
2026-05-06 09:21 16.42305 -62.40189 28645 ft 497 kts 160°
2026-05-06 09:21 16.39082 -62.38874 29012 ft 496 kts 160°
2026-05-06 09:21 16.35906 -62.37579 29363 ft 495 kts 160°
2026-05-06 09:22 16.32695 -62.36270 29696 ft 494 kts 160°
2026-05-06 09:22 16.29498 -62.34967 30032 ft 494 kts 160°
2026-05-06 09:22 16.26293 -62.33662 30343 ft 493 kts 160°
2026-05-06 09:22 16.23099 -62.32363 30678 ft 492 kts 160°
2026-05-06 09:23 16.19912 -62.31066 31025 ft 490 kts 160°
2026-05-06 09:23 16.16738 -62.29774 31377 ft 489 kts 160°
2026-05-06 09:23 16.13569 -62.28485 31731 ft 487 kts 160°
2026-05-06 09:23 16.10460 -62.27221 32073 ft 485 kts 160°
2026-05-06 09:24 16.07313 -62.25941 32417 ft 484 kts 160°
2026-05-06 09:24 16.04182 -62.24669 32758 ft 482 kts 160°
2026-05-06 09:24 16.01055 -62.23398 33104 ft 480 kts 160°
2026-05-06 09:24 15.97944 -62.22135 33433 ft 479 kts 160°
2026-05-06 09:25 15.94866 -62.20886 33710 ft 479 kts 160°
2026-05-06 09:25 15.91752 -62.19622 33964 ft 479 kts 160°
2026-05-06 09:25 15.88638 -62.18359 34205 ft 479 kts 160°
2026-05-06 09:25 15.85521 -62.17096 34431 ft 480 kts 160°
2026-05-06 09:26 15.83457 -62.16259 34578 ft 480 kts 160°
2026-05-06 09:26 15.79323 -62.14583 34841 ft 482 kts 160°
2026-05-06 09:26 15.76185 -62.13312 35030 ft 483 kts 160°
2026-05-06 09:27 15.70967 -62.11200 35060 ft 484 kts 160°
2026-05-06 09:27 15.64671 -62.08653 35063 ft 484 kts 160°
2026-05-06 09:28 15.58427 -62.06130 35066 ft 484 kts 160°
2026-05-06 09:28 15.52132 -62.03586 35066 ft 484 kts 160°
2026-05-06 09:29 15.45838 -62.01045 35067 ft 484 kts 160°
2026-05-06 09:29 15.39590 -61.98526 35075 ft 484 kts 160°
2026-05-06 09:30 15.33299 -61.95993 35094 ft 484 kts 160°
2026-05-06 09:30 15.27015 -61.93467 35120 ft 483 kts 160°
2026-05-06 09:31 15.20776 -61.90961 35152 ft 483 kts 160°
2026-05-06 09:31 15.14497 -61.88442 35183 ft 482 kts 160°
2026-05-06 09:32 15.08229 -61.85929 35206 ft 482 kts 160°
2026-05-06 09:32 15.02007 -61.83437 35227 ft 482 kts 160°
2026-05-06 09:33 14.95745 -61.80931 35238 ft 481 kts 160°
2026-05-06 09:33 14.89523 -61.78443 35246 ft 481 kts 160°
2026-05-06 09:34 14.83266 -61.75942 35258 ft 481 kts 160°
2026-05-06 09:34 14.77001 -61.73440 35269 ft 481 kts 160°
2026-05-06 09:35 14.70775 -61.70955 35253 ft 482 kts 160°
2026-05-06 09:35 14.64504 -61.68454 35263 ft 482 kts 160°
2026-05-06 09:36 14.58249 -61.65961 35258 ft 482 kts 160°
2026-05-06 09:36 14.52016 -61.63477 35265 ft 482 kts 160°
2026-05-06 09:37 14.45746 -61.60980 35269 ft 482 kts 160°
2026-05-06 09:37 14.39512 -61.58500 35270 ft 482 kts 159°
2026-05-06 09:38 14.33242 -61.56006 35276 ft 482 kts 159°
2026-05-06 09:38 14.27000 -61.53525 35275 ft 482 kts 159°
2026-05-06 09:39 14.20733 -61.51035 35287 ft 482 kts 159°
2026-05-06 09:39 14.14454 -61.48541 35286 ft 482 kts 159°
2026-05-06 09:40 14.08230 -61.46069 35298 ft 482 kts 159°
2026-05-06 09:40 13.98863 -61.42352 35305 ft 482 kts 159°
2026-05-06 09:41 13.92600 -61.39868 35311 ft 482 kts 159°
2026-05-06 09:41 13.86327 -61.37380 35314 ft 482 kts 159°
2026-05-06 09:42 13.80099 -61.34912 35319 ft 482 kts 159°
2026-05-06 09:42 13.73835 -61.32429 35326 ft 482 kts 159°
2026-05-06 09:43 13.67576 -61.29950 35330 ft 482 kts 159°
2026-05-06 09:43 13.61314 -61.27470 35337 ft 482 kts 159°
2026-05-06 09:44 13.55088 -61.25004 35343 ft 481 kts 159°
2026-05-06 09:44 13.48820 -61.22522 35355 ft 481 kts 159°
2026-05-06 09:45 13.42595 -61.20057 35366 ft 481 kts 159°
2026-05-06 09:45 13.36330 -61.17575 35372 ft 481 kts 159°
2026-05-06 09:46 13.30075 -61.15098 35378 ft 481 kts 159°
2026-05-06 09:46 13.23855 -61.12634 35389 ft 481 kts 159°
2026-05-06 09:47 13.17631 -61.10168 35391 ft 481 kts 159°
2026-05-06 09:47 13.11382 -61.07692 35399 ft 481 kts 159°
2026-05-06 09:48 13.05131 -61.05214 35405 ft 481 kts 159°
2026-05-06 09:48 12.98891 -61.02741 35420 ft 480 kts 159°
2026-05-06 09:49 12.92684 -61.00280 35435 ft 480 kts 159°
2026-05-06 09:49 12.86437 -60.97803 35449 ft 480 kts 159°
2026-05-06 09:50 12.80232 -60.95341 35460 ft 480 kts 159°
2026-05-06 09:50 12.74002 -60.92869 35474 ft 479 kts 159°
2026-05-06 09:51 12.67764 -60.90392 35486 ft 479 kts 159°
2026-05-06 09:51 12.61578 -60.87935 35497 ft 479 kts 159°
2026-05-06 09:52 12.55364 -60.85466 35517 ft 479 kts 159°
2026-05-06 09:52 12.49148 -60.82994 35530 ft 478 kts 159°
2026-05-06 09:53 12.42934 -60.80522 35545 ft 478 kts 159°
2026-05-06 09:53 12.36768 -60.78067 35558 ft 478 kts 159°
2026-05-06 09:54 12.30566 -60.75596 35571 ft 478 kts 159°
2026-05-06 09:54 12.24362 -60.73124 35586 ft 477 kts 159°
2026-05-06 09:55 12.18195 -60.70664 35598 ft 477 kts 159°
2026-05-06 09:55 12.11999 -60.68191 35612 ft 477 kts 159°
2026-05-06 09:56 12.05809 -60.65719 35635 ft 477 kts 159°
2026-05-06 09:56 11.99665 -60.63263 35648 ft 476 kts 159°
2026-05-06 09:57 11.93492 -60.60793 35670 ft 476 kts 159°
2026-05-06 09:57 11.87316 -60.58320 35695 ft 475 kts 159°
2026-05-06 09:58 11.81191 -60.55864 35718 ft 475 kts 159°
2026-05-06 09:58 11.75030 -60.53392 35743 ft 474 kts 159°
2026-05-06 09:59 11.68888 -60.50925 35759 ft 474 kts 159°
2026-05-06 09:59 11.62747 -60.48457 35790 ft 473 kts 159°
2026-05-06 10:00 11.56659 -60.46006 35804 ft 473 kts 159°
2026-05-06 10:00 11.50535 -60.43538 35821 ft 472 kts 159°
2026-05-06 10:01 11.44415 -60.41068 35838 ft 472 kts 159°
2026-05-06 10:01 11.38342 -60.38615 35854 ft 471 kts 159°
2026-05-06 10:02 11.32235 -60.36144 35883 ft 471 kts 159°
2026-05-06 10:02 11.26168 -60.33686 35906 ft 470 kts 159°
2026-05-06 10:03 11.20078 -60.31216 35926 ft 470 kts 159°
2026-05-06 10:03 11.14042 -60.28763 35952 ft 469 kts 159°
2026-05-06 10:04 11.07966 -60.26290 35979 ft 468 kts 159°
2026-05-06 10:04 11.01913 -60.23822 36007 ft 468 kts 159°
2026-05-06 10:05 10.95902 -60.21366 36027 ft 467 kts 159°
2026-05-06 10:05 10.89867 -60.18896 36063 ft 466 kts 159°
2026-05-06 10:06 10.83849 -60.16428 36077 ft 465 kts 159°
2026-05-06 10:06 10.77862 -60.13969 36102 ft 465 kts 159°
2026-05-06 10:07 10.71888 -60.11509 36120 ft 464 kts 159°
2026-05-06 10:07 10.65891 -60.09035 36134 ft 463 kts 159°
2026-05-06 10:08 10.59951 -60.06579 36159 ft 463 kts 159°
2026-05-06 10:08 10.53977 -60.04103 36170 ft 462 kts 159°
2026-05-06 10:09 10.48014 -60.01626 36198 ft 461 kts 159°
2026-05-06 10:09 10.42104 -59.99165 36220 ft 461 kts 159°
2026-05-06 10:10 10.36157 -59.96682 36238 ft 460 kts 159°
2026-05-06 10:10 10.30242 -59.94206 36249 ft 459 kts 159°
2026-05-06 10:11 10.24369 -59.91741 36263 ft 459 kts 159°
2026-05-06 10:11 10.18459 -59.89254 36278 ft 458 kts 158°
2026-05-06 10:12 10.12568 -59.86769 36288 ft 458 kts 158°
2026-05-06 10:12 10.06673 -59.84274 36299 ft 457 kts 158°
2026-05-06 10:13 10.00838 -59.81798 36307 ft 457 kts 158°
2026-05-06 10:13 9.94973 -59.79302 36318 ft 457 kts 158°
2026-05-06 10:14 9.89107 -59.76799 36323 ft 456 kts 158°
2026-05-06 10:14 9.83283 -59.74307 36323 ft 456 kts 158°
2026-05-06 10:15 9.77425 -59.71792 36331 ft 455 kts 158°
2026-05-06 10:15 9.71625 -59.69294 36338 ft 455 kts 158°
2026-05-06 10:16 9.65797 -59.66778 36344 ft 455 kts 158°
2026-05-06 10:16 9.60952 -59.64679 36350 ft 454 kts 158°
2026-05-06 10:17 9.55137 -59.62153 36360 ft 454 kts 158°
2026-05-06 10:17 9.49329 -59.59622 36368 ft 453 kts 158°
2026-05-06 10:18 9.43563 -59.57102 36377 ft 453 kts 158°
2026-05-06 10:18 9.37781 -59.54565 36385 ft 453 kts 158°
2026-05-06 10:19 9.32001 -59.52022 36389 ft 452 kts 158°
2026-05-06 10:19 9.26252 -59.49483 36400 ft 452 kts 158°
2026-05-06 10:20 9.20486 -59.46928 36416 ft 451 kts 158°
2026-05-06 10:20 9.14740 -59.44373 36425 ft 451 kts 157°
2026-05-06 10:21 9.09027 -59.41824 36434 ft 450 kts 157°
2026-05-06 10:21 9.03292 -59.39256 36442 ft 450 kts 157°
2026-05-06 10:22 8.97567 -59.36683 36451 ft 449 kts 157°
2026-05-06 10:22 8.91884 -59.34121 36453 ft 449 kts 157°
2026-05-06 10:23 8.86182 -59.31540 36471 ft 448 kts 157°
2026-05-06 10:23 8.80500 -59.28958 36487 ft 447 kts 157°
2026-05-06 10:24 8.74821 -59.26368 36505 ft 446 kts 157°
2026-05-06 10:24 8.69190 -59.23791 36533 ft 446 kts 157°
2026-05-06 10:25 8.63531 -59.21191 36650 ft 444 kts 156°
2026-05-06 10:25 8.57951 -59.18619 36780 ft 442 kts 156°
2026-05-06 10:26 8.52354 -59.16029 36883 ft 441 kts 156°
2026-05-06 10:26 8.46779 -59.13440 36983 ft 439 kts 156°
2026-05-06 10:27 8.41258 -59.10866 37063 ft 438 kts 156°
2026-05-06 10:27 8.35722 -59.08274 37130 ft 437 kts 156°
2026-05-06 10:28 8.30201 -59.05678 37190 ft 437 kts 156°
2026-05-06 10:28 8.24731 -59.03094 37244 ft 436 kts 156°
2026-05-06 10:29 8.19224 -59.00482 37294 ft 435 kts 156°
2026-05-06 10:29 8.13773 -58.97884 37343 ft 435 kts 156°
2026-05-06 10:30 8.08293 -58.95260 37389 ft 434 kts 155°
2026-05-06 10:30 8.02873 -58.92653 37413 ft 434 kts 155°
2026-05-06 10:31 7.97426 -58.90021 37440 ft 433 kts 155°
2026-05-06 10:31 7.91983 -58.87378 37483 ft 433 kts 155°
2026-05-06 10:32 7.86590 -58.84746 37520 ft 432 kts 155°
2026-05-06 10:32 7.81178 -58.82092 37553 ft 432 kts 155°
2026-05-06 10:33 7.75778 -58.79430 37579 ft 431 kts 155°
2026-05-06 10:33 7.70383 -58.76758 37595 ft 431 kts 155°
2026-05-06 10:34 7.65037 -58.74097 37628 ft 430 kts 155°
2026-05-06 10:34 7.59664 -58.71408 37642 ft 430 kts 155°
2026-05-06 10:35 7.54327 -58.68723 37653 ft 430 kts 154°
2026-05-06 10:35 7.48965 -58.66012 37662 ft 430 kts 154°
2026-05-06 10:36 7.43622 -58.63296 37674 ft 430 kts 154°
2026-05-06 10:36 7.38286 -58.60570 37683 ft 429 kts 154°
2026-05-06 10:37 7.32990 -58.57849 37689 ft 429 kts 154°
2026-05-06 10:37 7.27651 -58.55091 37693 ft 429 kts 154°
2026-05-06 10:38 7.22375 -58.52352 37700 ft 429 kts 154°
2026-05-06 10:38 7.17060 -58.49579 37709 ft 429 kts 154°
2026-05-06 10:39 7.11764 -58.46800 37737 ft 429 kts 154°
2026-05-06 10:39 7.06490 -58.44017 37743 ft 428 kts 153°
2026-05-06 10:40 7.01206 -58.41215 37744 ft 428 kts 153°
2026-05-06 10:40 6.95933 -58.38402 37753 ft 428 kts 153°
2026-05-06 10:41 6.90668 -58.35580 37745 ft 428 kts 153°
2026-05-06 10:41 6.85441 -58.32762 37743 ft 429 kts 153°
2026-05-06 10:42 6.80186 -58.29913 37740 ft 429 kts 153°
2026-05-06 10:42 6.74924 -58.27046 37740 ft 429 kts 153°
2026-05-06 10:43 6.69706 -58.24188 37732 ft 429 kts 153°
2026-05-06 10:44 6.61838 -58.19849 37713 ft 430 kts 152°
2026-05-06 10:44 6.56598 -58.16940 37710 ft 430 kts 152°
2026-05-06 10:45 6.51357 -58.14015 37710 ft 430 kts 152°
2026-05-06 10:45 6.46149 -58.11093 37709 ft 430 kts 152°
2026-05-06 10:46 6.41022 -58.07928 37706 ft 436 kts 145°
2026-05-06 10:46 6.38427 -58.06330 37691 ft 438 kts 158°
2026-05-06 10:46 6.35540 -58.05326 37702 ft 440 kts 167°
2026-05-06 10:47 6.29489 -58.04595 37768 ft 445 kts 182°
2026-05-06 10:47 6.23365 -58.05642 37847 ft 449 kts 199°
2026-05-06 10:48 6.17707 -58.08404 37937 ft 455 kts 211°
2026-05-06 10:48 6.12279 -58.11706 37998 ft 461 kts 211°
2026-05-06 10:49 6.06766 -58.15070 38000 ft 463 kts 211°
2026-05-06 10:49 6.01249 -58.18427 38000 ft 463 kts 211°
2026-05-06 10:50 5.95750 -58.21768 38000 ft 463 kts 211°
2026-05-06 10:50 5.90226 -58.25122 38000 ft 463 kts 211°
2026-05-06 10:51 5.84700 -58.28477 38000 ft 463 kts 211°
2026-05-06 10:51 5.79213 -58.31807 38000 ft 463 kts 211°
2026-05-06 10:52 5.73685 -58.35160 38000 ft 462 kts 211°
2026-05-06 10:52 5.68149 -58.38394 38000 ft 462 kts 208°
2026-05-06 10:53 5.62301 -58.41121 38000 ft 462 kts 201°
2026-05-06 10:53 5.56204 -58.43184 38000 ft 462 kts 195°
2026-05-06 10:54 5.49943 -58.44586 38001 ft 463 kts 191°
2026-05-06 10:54 5.43621 -58.45787 38000 ft 462 kts 191°
2026-05-06 10:55 5.37326 -58.46978 38001 ft 462 kts 191°
2026-05-06 10:55 5.31009 -58.48174 37999 ft 462 kts 191°
2026-05-06 10:56 5.24717 -58.49366 38000 ft 462 kts 191°
2026-05-06 10:56 5.18404 -58.50562 38000 ft 461 kts 191°
2026-05-06 10:57 5.12098 -58.51757 38000 ft 461 kts 191°
2026-05-06 10:57 5.05787 -58.52952 38000 ft 460 kts 191°
2026-05-06 10:58 4.99532 -58.54136 38000 ft 460 kts 191°
2026-05-06 10:58 4.93240 -58.55327 38000 ft 459 kts 191°
2026-05-06 10:59 4.86941 -58.56520 38000 ft 459 kts 191°
2026-05-06 10:59 4.80677 -58.57705 37999 ft 459 kts 191°
2026-05-06 11:00 4.74401 -58.58892 38000 ft 458 kts 191°